Dewpoint
64 63 64 64 64 64 65 65 66 67 67 67 66 65 65 66 66 66 67 67 67 67 67 66 66 66 65 64 62 59 57 57 56 57 59 61 62 63 64 63 62 61 61 61 61 61 60 59 59 59 59 59 58 59 58 58 57 57 57 57 57 57 57 57 57 56 56 56 56 56 56 55 55 55 54 54 54 54 53 54 53 53 53 53 51
64 64 63 63 64 63 64 65 65 66 67 67 67 66 65 65 65 65 65 66 66 66 67 66 65 65 64 63 62 59 58 57 57 57 58 60 61 63 65 63 62 61 61 61 62 61 60 60 60 60 59 59 58 59 59 59 58 57 58 57 57 57 58 57 57 57 56 56 56 56 56 56 55 55 55 54 54 54 55 54 52 54 53 53 53
65 65 65 64 64 64 65 65 65 66 66 67 67 66 65 65 65 65 65 65 65 66 66 65 64 64 64 64 62 59 58 58 57 57 58 59 60 61 63 64 63 62 61 62 62 62 61 61 61 60 60 59 59 60 59 59 59 58 58 57 57 58 57 57 57 57 56 56 56 56 56 55 56 55 55 55 55 55 54 55 55 53 53 54 53
66 66 66 65 65 65 64 64 65 65 65 66 67 67 66 65 65 65 65 65 64 65 65 65 64 64 64 63 63 60 58 58 57 57 58 59 60 60 61 62 63 62 62 63 62 62 62 62 61 61 61 60 60 59 59 59 59 59 58 58 57 58 57 58 58 57 57 57 57 57 56 56 56 56 55 55 55 55 55 55 55 54 54 54 54
66 66 68 66 65 65 65 66 66 66 65 65 66 66 66 65 65 66 65 64 64 63 64 64 63 63 64 63 62 61 58 58 58 58 58 58 59 60 60 61 61 63 62 62 63 62 62 62 62 61 61 61 61 60 59 59 59 59 59 58 58 58 58 58 58 58 58 57 57 57 57 56 56 57 56 55 56 56 55 55 55 55 55 55 55
66 66 66 66 66 66 65 65 65 65 66 65 65 65 65 65 64 64 66 65 63 63 63 62 62 63 63 62 62 62 60 58 58 58 58 58 59 59 60 60 61 61 61 63 62 62 62 62 62 62 62 62 62 61 60 60 60 59 59 59 58 58 58 58 58 58 58 58 58 58 57 57 56 57 57 56 55 55 56 56 56 55 55 55 55
66 66 66 66 66 66 66 66 65 66 66 66 65 64 64 64 64 63 63 64 63 63 63 62 62 62 62 62 61 61 62 60 60 59 58 58 59 59 59 60 60 60 61 60 64 63 63 63 62 62 62 62 62 62 61 61 61 60 60 58 59 58 58 59 59 59 59 59 58 58 58 58 57 57 57 57 57 56 56 56 56 56 56 56 56
67 66 66 66 66 66 66 66 66 66 66 65 65 64 63 63 63 63 62 61 62 62 63 62 62 62 62 62 62 62 61 61 63 60 59 59 58 58 59 59 60 60 62 60 60 62 63 63 63 63 62 62 62 62 62 61 60 60 60 59 59 59 59 59 59 58 58 59 59 59 58 58 58 58 57 57 57 57 57 56 56 56 56 56 56
67 67 66 66 66 66 66 66 66 66 66 64 65 65 63 64 62 63 62 60 60 60 61 62 62 62 62 61 61 62 62 62 63 63 61 59 59 58 59 59 60 63 61 60 60 60 63 64 63 63 63 63 63 63 63 62 62 61 61 60 60 59 60 59 59 59 59 59 59 59 59 58 58 58 58 57 57 57 57 57 57 57 57 56 56
67 66 66 66 66 66 66 66 66 66 66 65 65 64 64 63 63 63 62 61 60 60 59 59 61 62 62 62 62 62 63 64 64 65 63 60 59 58 58 59 59 59 60 60 59 59 60 63 64 64 63 63 64 63 63 63 63 63 62 61 61 60 60 60 60 59 59 58 59 59 59 58 58 58 58 58 57 57 57 57 57 57 57 57 57
66 66 66 66 66 65 65 65 66 65 65 65 65 65 63 63 63 63 63 63 61 60 59 59 60 60 61 61 62 63 64 64 63 64 63 63 60 59 59 59 59 59 59 59 59 59 59 59 61 62 62 64 64 63 63 63 63 63 63 63 62 61 61 61 60 60 60 60 59 59 59 58 58 58 58 58 58 57 57 57 57 57 57 57 57
67 66 65 66 65 66 65 65 65 65 64 63 63 64 64 63 63 63 63 63 63 62 61 60 60 59 59 60 62 62 63 63 63 63 63 62 62 61 59 59 59 59 59 59 59 59 59 59 60 60 61 62 64 64 64 63 63 63 63 63 63 62 61 61 61 61 60 60 60 59 59 58 58 58 58 58 58 57 57 57 57 57 57 57 57
66 66 66 67 66 66 65 65 65 65 64 62 62 64 64 64 63 62 62 62 61 61 61 60 58 58 56 58 60 62 63 63 62 62 62 62 62 62 60 59 59 59 59 59 59 58 58 58 58 59 60 60 62 64 65 64 64 63 64 64 64 63 62 62 61 62 61 60 60 60 59 59 58 58 58 58 58 57 57 57 57 57 57 57 56
65 64 64 64 64 65 65 65 64 65 64 64 64 64 63 64 64 63 62 61 60 61 61 59 58 56 55 55 55 58 61 62 62 61 61 61 62 62 62 60 59 59 59 59 60 59 58 58 58 58 58 59 60 60 62 63 63 64 64 64 64 64 64 63 62 62 62 62 61 59 59 59 59 58 58 58 58 58 57 57 57 57 57 57 57
60 63 65 65 65 64 65 65 65 65 65 64 64 63 63 63 63 63 62 61 61 61 60 59 58 56 55 53 51 52 54 58 60 61 62 61 62 62 62 62 61 61 61 62 62 61 60 59 58 58 58 58 59 59 59 62 62 64 64 64 64 64 64 64 63 63 62 62 62 62 61 61 60 59 59 59 58 58 58 58 57 57 58 58 57
59 60 63 63 64 65 65 64 65 65 65 64 64 64 63 64 64 63 63 61 61 60 61 61 60 58 55 55 53 52 51 52 56 58 61 61 62 62 62 63 63 63 63 63 63 63 63 61 59 59 59 59 59 59 59 59 61 64 64 64 64 64 64 64 64 64 63 62 62 62 62 61 61 60 60 60 59 58 58 58 57 58 58 57 58
59 59 62 63 62 62 63 64 64 64 64 64 64 64 63 62 62 62 61 62 62 61 60 60 60 61 58 54 53 52 52 52 54 56 57 59 61 62 62 62 63 63 63 63 63 64 64 63 61 60 59 59 59 59 58 58 59 61 62 64 64 64 64 64 64 64 64 64 63 62 62 61 61 61 61 60 59 59 59 59 58 58 57 58 58
59 59 59 61 60 61 61 63 63 64 63 63 64 63 62 63 63 63 63 62 61 61 60 60 61 61 61 60 57 55 53 55 53 52 57 60 61 61 62 62 62 63 62 62 63 63 63 63 63 61 60 59 59 59 58 58 59 59 60 61 64 65 65 65 65 64 64 65 65 64 63 63 63 62 62 61 60 60 59 59 59 58 58 59 59
60 60 59 60 60 61 62 62 63 63 64 63 63 63 64 64 64 63 62 62 62 60 59 59 61 61 61 60 60 60 59 57 55 55 54 55 57 58 60 62 62 62 62 62 63 63 63 64 64 64 62 61 60 59 59 58 60 60 62 62 64 65 65 66 65 65 65 65 65 65 65 64 63 63 63 62 61 61 60 60 60 60 60 60 59
60 61 61 61 62 61 61 62 62 62 64 62 62 62 63 63 63 61 62 62 62 61 60 60 60 60 60 59 60 60 60 59 58 56 54 53 54 56 58 60 60 62 62 62 63 63 63 63 64 64 64 64 62 60 60 59 59 59 60 63 64 64 65 66 66 66 65 65 65 65 65 65 65 64 63 63 63 63 62 62 61 61 61 61 60
60 61 61 61 62 62 60 61 61 62 63 62 62 62 62 62 61 62 62 63 62 62 61 61 61 60 60 59 59 60 59 60 60 59 56 54 55 55 57 57 59 61 61 62 63 64 64 63 63 63 64 64 64 63 62 61 61 60 61 62 64 65 65 66 66 66 66 66 66 66 66 66 65 65 64 64 64 63 63 63 62 62 61 61 60
60 60 61 61 60 60 61 60 60 60 62 61 60 60 60 60 60 61 62 62 62 62 61 61 61 61 61 60 59 59 58 57 57 57 58 57 56 56 57 57 56 57 59 60 62 62 63 64 64 64 64 64 64 64 63 63 62 61 61 62 63 65 65 66 66 66 67 67 66 66 66 66 66 65 65 65 64 64 64 64 63 62 62 62 61
59 60 60 61 61 61 60 60 60 61 61 60 60 61 62 62 61 62 63 62 62 62 62 62 62 61 61 60 60 60 58 56 57 57 57 56 56 57 57 58 58 58 59 60 60 61 61 62 63 64 64 64 64 63 63 63 63 62 62 62 62 63 65 66 66 67 67 67 67 67 67 67 67 66 66 66 65 65 64 64 63 63 62 62 62
59 59 59 60 61 60 60 59 60 59 60 60 60 60 60 62 62 62 61 61 61 62 62 62 61 61 60 61 61 60 60 60 59 58 58 58 57 57 57 55 57 58 59 59 61 61 61 61 61 61 62 63 63 63 63 63 63 63 63 62 62 63 64 65 66 66 67 67 68 68 67 67 67 67 67 67 66 65 64 64 64 63 63 63 63
58 58 59 60 61 60 60 59 59 59 60 59 59 60 59 60 61 61 61 62 62 62 61 61 62 61 61 62 62 60 60 60 60 60 59 58 58 57 57 58 57 57 57 58 58 61 61 61 61 61 61 61 61 62 63 64 65 63 62 62 62 62 63 65 66 66 67 67 68 68 68 68 67 67 67 66 66 65 64 64 64 64 64 63 63
58 58 60 60 60 61 60 59 59 59 60 60 60 60 60 59 60 61 61 62 62 61 61 61 61 61 62 61 61 61 61 61 61 61 59 59 58 58 57 57 57 58 57 57 59 58 59 60 61 61 61 61 62 65 64 64 64 62 62 63 62 61 61 63 65 65 67 67 67 68 68 68 68 67 67 66 65 65 65 65 64 64 64 64 64
57 58 61 60 59 60 60 59 60 60 60 60 60 60 59 60 60 61 61 62 62 62 62 60 60 60 60 61 62 62 62 63 61 61 61 60 60 59 58 56 57 56 57 57 57 58 58 59 60 60 60 61 63 64 64 64 63 62 62 63 64 61 60 60 62 63 65 67 68 68 67 67 67 66 66 66 65 65 65 65 65 65 65 65 65
58 59 58 59 59 58 57 57 56 56 56 57 58 58 59 60 60 59 59 60 61 61 61 60 60 60 61 62 62 62 62 62 62 62 62 62 61 60 59 59 56 55 56 56 55 57 59 59 60 60 61 63 64 63 63 63 64 62 62 64 64 62 60 59 59 61 64 65 66 68 68 67 67 67 66 66 66 66 66 66 66 66 66 65 65
58 58 55 53 53 53 52 52 51 50 50 50 52 53 55 57 59 60 60 60 60 60 60 61 62 62 62 62 62 62 62 62 62 61 62 62 61 61 61 59 58 56 55 55 55 54 57 59 57 60 64 64 63 63 64 65 64 63 64 64 64 64 61 58 57 59 62 62 62 65 67 69 69 68 67 67 67 66 66 67 67 66 66 66 65
55 54 51 50 48 49 47 47 46 46 45 45 47 48 51 53 55 56 57 59 59 59 60 60 60 61 62 62 62 61 61 61 62 62 62 61 60 61 61 60 60 58 57 55 55 57 58 60 61 60 62 63 64 64 63 64 62 63 64 64 64 64 60 58 56 57 58 58 58 60 62 65 67 68 68 68 68 67 67 67 67 67 66 66 65
52 50 48 46 44 44 43 42 42 42 42 42 44 45 47 49 51 52 53 55 59 59 59 60 60 60 59 58 58 59 60 60 60 61 62 62 61 62 61 61 60 60 58 58 55 58 60 57 60 64 64 64 64 64 64 64 63 63 64 64 65 62 60 60 58 57 56 55 55 57 59 62 64 66 68 68 68 67 67 67 67 66 65 64 62
49 46 44 43 42 41 41 41 40 40 40 41 42 43 44 46 48 49 50 52 57 59 59 60 58 57 56 54 54 54 55 55 55 55 57 58 60 60 61 61 60 60 59 58 57 56 59 60 61 61 64 63 64 63 63 64 65 61 64 65 65 61 63 64 60 58 56 54 54 54 55 57 59 62 64 66 67 67 67 67 66 64 62 62 61
44 42 41 41 40 40 39 40 39 39 39 39 40 41 43 44 46 48 49 51 55 59 58 56 55 54 52 49 49 49 49 50 51 51 52 54 55 55 56 58 59 60 60 59 57 57 59 61 61 61 63 63 63 64 63 63 64 64 62 64 65 64 64 64 64 60 57 55 53 53 52 52 53 56 59 63 64 64 65 63 61 60 61 62 61
42 40 39 40 39 39 38 38 38 38 39 39 39 40 42 43 45 47 48 51 56 55 53 50 49 49 46 43 42 44 45 44 45 46 47 50 51 52 52 53 54 55 57 58 58 57 57 59 60 62 62 63 62 64 62 62 62 62 63 64 65 66 65 65 65 65 59 56 54 53 52 51 51 51 53 56 57 56 57 57 58 57 58 60 60
42 40 39 38 38 37 38 38 38 38 38 39 39 40 41 42 44 46 48 52 53 51 49 47 45 43 41 40 39 39 42 41 41 43 43 45 47 47 48 50 51 52 54 56 57 57 58 59 61 60 61 61 61 62 63 63 63 63 63 63 64 65 66 66 66 65 60 57 55 54 53 52 51 51 51 51 52 53 54 54 54 55 55 56 55
42 41 40 38 38 37 37 37 38 38 38 39 39 40 41 41 43 46 49 53 52 50 48 46 44 43 41 40 39 39 39 39 40 40 42 42 44 45 45 47 48 50 52 54 56 56 57 56 58 60 60 61 61 62 63 63 63 62 63 63 63 64 64 65 66 65 63 58 55 54 54 52 51 51 50 50 50 51 52 52 53 53 53 53 53
43 41 41 39 37 37 37 37 37 38 38 39 39 40 41 42 43 46 50 52 50 48 47 46 46 43 42 41 41 39 38 39 39 39 40 42 42 44 44 45 47 48 50 52 54 56 56 55 56 58 60 60 61 61 59 57 59 59 58 59 61 62 63 64 64 65 60 59 57 56 55 53 52 51 50 50 50 50 50 51 51 51 52 52 52
42 41 40 39 38 35 35 36 36 37 38 39 39 40 40 42 44 47 49 51 50 47 46 46 45 44 42 41 41 39 38 38 39 39 40 41 42 43 43 44 46 47 49 50 52 53 54 55 55 55 57 58 54 54 55 54 54 53 52 54 56 59 60 60 61 62 63 64 64 64 59 56 53 51 50 50 49 49 49 49 50 50 51 51 51
42 40 39 37 37 34 33 34 35 36 38 39 39 40 41 42 44 46 47 48 49 49 47 46 45 45 43 42 42 41 39 39 39 39 40 41 42 43 44 45 46 46 47 48 49 50 52 52 51 52 53 53 50 49 49 51 51 52 50 51 51 55 57 57 58 60 62 63 61 60 60 59 56 57 55 52 50 49 49 49 50 50 51 51 50
41 39 37 36 35 34 33 32 33 38 37 39 40 40 42 43 44 46 47 45 44 45 45 43 41 40 41 41 41 41 41 40 40 40 41 42 42 42 43 44 43 43 44 45 45 47 48 47 47 47 48 47 47 46 47 48 47 48 49 50 50 52 53 55 57 58 60 62 61 61 59 60 60 60 56 55 53 52 52 51 51 51 52 51 50
42 39 37 36 34 33 32 31 31 34 37 39 41 41 42 43 44 46 46 44 43 41 40 39 39 37 37 40 41 41 42 44 43 43 43 44 43 42 42 41 40 40 41 41 42 43 44 44 43 44 44 44 44 44 45 45 46 47 48 49 49 49 51 53 53 57 61 61 58 58 59 60 61 61 62 62 62 58 56 53 53 52 52 51 49
41 39 37 37 36 35 32 29 29 34 37 39 42 42 43 45 44 45 45 44 42 40 39 38 37 37 36 36 41 44 43 43 42 41 41 42 44 43 43 40 39 39 40 41 41 42 42 42 42 42 42 42 42 43 44 44 45 46 46 47 47 48 50 50 51 53 58 57 55 55 56 58 59 60 61 61 61 62 62 59 57 56 53 50 49
42 41 38 38 37 36 32 29 29 33 36 39 40 39 39 42 45 44 45 43 41 39 37 36 36 37 36 36 36 41 41 40 39 40 40 40 41 40 41 44 44 40 39 39 40 41 42 41 41 41 41 41 41 42 42 42 43 44 45 46 48 48 48 48 47 50 55 54 54 54 54 57 59 59 59 60 61 62 63 62 57 54 52 51 50
45 42 40 39 39 37 32 28 29 33 35 40 38 39 39 39 43 45 44 42 40 38 36 35 36 36 36 36 36 37 40 40 38 36 39 40 40 40 39 40 41 40 40 40 40 39 40 40 39 39 39 40 40 39 39 40 41 42 42 44 46 47 47 47 48 48 51 53 53 53 54 57 59 59 59 60 61 62 62 58 56 55 53 52 51
44 43 42 40 39 37 31 28 30 33 35 39 38 38 38 38 40 43 42 41 39 37 36 35 35 35 35 36 36 36 36 42 40 36 36 37 41 40 40 40 41 40 37 37 39 42 41 40 39 37 38 39 37 37 38 39 40 40 40 42 44 45 46 46 47 49 50 53 53 52 53 56 57 56 57 58 59 60 61 57 56 54 53 52 52
43 43 43 42 40 37 32 29 30 32 35 38 37 38 37 37 38 40 42 41 39 37 36 35 35 35 35 35 35 35 35 37 38 37 36 36 36 37 36 36 36 38 40 39 39 39 42 41 39 37 37 39 37 37 38 38 38 39 39 40 42 43 43 44 46 49 49 52 48 49 50 49 50 51 50 50 53 55 56 55 53 53 52 52 51
42 42 43 42 41 39 34 31 30 32 34 37 37 37 37 37 37 39 39 41 41 39 37 36 35 35 35 36 36 35 35 36 39 39 38 36 35 36 34 34 35 35 37 38 38 39 39 39 39 38 37 38 39 37 37 37 38 38 40 40 40 40 41 44 46 45 45 48 44 45 45 44 47 46 45 47 49 49 50 51 53 53 52 52 51
42 42 42 43 41 37 35 31 29 30 33 36 36 36 36 36 37 37 37 38 39 40 40 39 38 38 37 37 36 36 35 36 38 37 39 39 35 34 33 33 34 34 36 41 39 39 39 37 38 38 37 38 38 38 39 38 37 37 38 37 37 36 37 38 38 39 40 42 43 40 41 41 44 43 43 46 47 47 49 54 54 53 51 51 51
41 41 41 42 42 38 36 31 29 30 32 35 35 36 36 36 36 34 35 37 37 37 38 41 40 37 40 41 38 36 35 35 38 36 37 40 35 34 33 32 33 33 35 37 37 36 37 37 37 37 36 36 36 37 36 37 38 38 35 34 33 35 36 35 36 36 37 40 41 38 39 39 40 41 44 45 46 47 50 54 56 51 50 50 51
41 41 42 42 41 39 33 31 31 30 31 35 35 35 36 36 36 33 34 35 35 36 37 38 39 35 37 41 42 37 36 36 36 36 37 39 34 34 32 31 30 30 31 35 34 33 36 36 36 35 34 35 34 35 35 36 36 37 34 33 34 34 35 36 34 35 36 40 38 38 38 38 39 42 43 44 46 49 49 54 52 51 49 51 52
42 42 44 42 41 39 37 36 36 31 32 34 35 34 35 35 35 32 32 32 33 34 35 37 36 34 32 35 40 39 38 38 36 36 36 38 34 33 31 29 28 28 30 32 31 29 31 30 30 32 29 32 31 31 33 34 35 36 33 33 33 34 33 34 35 35 35 36 37 38 36 37 38 39 40 42 43 46 51 48 48 49 50 55 54